Погода в Блитаре

Индонезия     8°05′46″S   112°10′13″E
темп.,
°C
ветер,
м/с
пор.,
м/с
влажн.,
%
обл.,
%
осадки,
мм/ч
давл.,
гПа
погр.,
м
2 марта, вт
вт201:00+21с239289 0.9 1010101
04:00+21ссв229427 0.0 100969
07:00+24ссв248528 0.0 1010216
10:00+29сз336231 0.2 1010813
13:00+28ссз346652 1.1 1008834
16:00+28ссз247065 2.4 1007608
19:00+22ссв239042 3.9 101061
22:00+22св229361 2.5 101251
3 марта, ср
ср301:00+22св229177 2.9 101048
04:00+22всв118982 0.0 100923
07:00+24в118360 0.0 101075
10:00+31зюз23457 0.0 10111189
13:00+32зсз33465 0.0 10081615
16:00+27сз138442 2.9 1007575
19:00+23св119459 5.9 101048
22:00+22ссв259383 1.8 1012141
4 марта, чт
чт401:00+22ссв269174 1.9 1011164
04:00+21ссв249197 0.0 1010116
07:00+24ссв138488 0.0 1012146
10:00+30з125399 0.0 10121125
13:00+31юз235399 0.3 10091496
16:00+25ю258980 5.4 1008388
19:00+22юв239190 6.3 101185
22:00+21вюв2391100 0.0 101289
5 марта, пт
пт501:00+21вюв228591 0.0 101146
04:00+21в128583 0.0 101032
07:00+23вюв238177 0.0 1012136
10:00+28ю2356100 0.0 1012881
13:00+29ююз335399 0.0 10091083
16:00+27ю346076 0.1 1008706
19:00+22юв228585 0.1 101059
22:00+22всв118486 0.0 101123
6 марта, сб
сб601:00+21ссв129078 0.0 101032
04:00+21ссв129199 0.0 100939
07:00+23с238293 0.0 1011209
10:00+29ссз236482 0.4 1010990
13:00+28ссз127671 5.0 1008821
16:00+25ссз259146 7.9 1008340
19:00+22ссв249673 12.3 1010158
22:00+21с0194100 1.8 101227